Regional Weather Roundup
Issued by NWS

Home | Current Version | Previous Version | Graphics & Text | Print | Product List | Glossary On
Versions: 1 2 3 4 5 6 7 8 9 10 11 12 13 14 15 16 17 18 19 20 21 22 23 24 25 26 27 28 29 30 31 32 33 34 35 36 37 38 39 40 41 42 43 44 45 46 47 48 49 50
000
ASUS45 KPSR 201500
RWRAZ

PRELIMINARY ARIZONA REGIONAL HOURLY WEATHER ROUNDUP
NATIONAL WEATHER SERVICE PHOENIX AZ
800 AM MST SAT SEP 20 2014

NOTE: FAIR INDICATES FEW OR NO CLOUDS BELOW 12,000 FEET WITH NO
SIGNIFICANT WEATHER AND/OR OBSTRUCTIONS TO VISIBILITY.

AZZ001>003-036-201600-
NORTHWEST ARIZONA

CITY           SKY/WX    TMP DP  RH WIND       PRES   REMARKS
KINGMAN        MOSUNNY   75  47  36 CALM      30.03R
$$

AZZ004>008-015-016-018-201600-
NORTH CENTRAL ARIZONA

CITY           SKY/WX    TMP DP  RH WIND       PRES   REMARKS
GRAND CANYON   PTSUNNY   58  54  86 CALM      30.24R
PRESCOTT       MOSUNNY   68  48  48 CALM      30.14S
FLAGSTAFF      PTSUNNY   60  52  74 CALM      30.27R
PAYSON         MOSUNNY   66  59  77 CALM      30.16R
PAGE           SUNNY     77  47  34 N3        30.09R
$$

AZZ009>014-017-201600-
NORTHEAST ARIZONA

CITY           SKY/WX    TMP DP  RH WIND       PRES   REMARKS
WINSLOW        NOT AVBL
SAINT JOHNS    SUNNY     66  55  67 CALM      30.18R
WINDOW ROCK    SUNNY     56  43  61 S3        30.26
SHOW LOW       PTSUNNY   63  57  82 CALM      30.24S
$$

AZZ023-201600-
GREATER PHOENIX AREA

CITY           SKY/WX    TMP DP  RH WIND       PRES   REMARKS
PHOENIX        MOSUNNY   85  69  58 SE6       29.87R
GLENDALE       MOSUNNY   82  61  47 CALM      29.89R
DEER VALLEY    MOSUNNY   81  67  62 SE6       29.88S
SCOTTSDALE     PTSUNNY   83  67  58 SE5       29.91R
MESA-FALCON    MOSUNNY   82  68  61 E6        29.89R
MESA-GATEWAY   MOSUNNY   81  63  54 SE8       29.91R
CHANDLER       MOSUNNY   81  72  74 CALM      29.89R
$$

AZZ027-028-201600-
SOUTHWEST MARICOPA COUNTY AND PINAL COUNTY

CITY           SKY/WX    TMP DP  RH WIND       PRES   REMARKS
CASA GRANDE    SUNNY     81  68  65 CALM      29.91R
$$

AZZ503-504-507>509-201600-
SOUTHEAST ARIZONA

CITY           SKY/WX    TMP DP  RH WIND       PRES   REMARKS
TUCSON         SUNNY     77  68  73 SE5       30.00R
DAVIS-MONTHAN  SUNNY     77  67  72 SE6       29.99R
RYAN FIELD       N/A     75  72  88 CALM      29.99R
NOGALES        HVY RAIN  64  61  90 E8        30.08R FOG
SIERRA VISTA   PTSUNNY   71  64  78 CALM      30.12R
SAFFORD        SUNNY     73  66  78 CALM      30.01R
$$

AZZ020-021-025-026-031-201600-
SOUTHWEST ARIZONA

CITY           SKY/WX    TMP DP  RH WIND       PRES   REMARKS
YUMA           NOT AVBL
$$

CAZ031-033-041-043-047-048-061-201600-
SOUTHERN CALIFORNIA

CITY           SKY/WX    TMP DP  RH WIND       PRES   REMARKS
DOWNTOWN L.A.  CLOUDY    70  61  73 VRB3      29.93R
L.A. AIRPORT   CLOUDY    69  62  78 CALM      29.94R
SAN DIEGO      CLOUDY    71  61  70 CALM      29.94R
BURBANK        CLOUDY    65  60  84 S6        29.94R
ONTARIO        PTSUNNY   67  60  78 W6        29.95R
RIVERSIDE      CLOUDY    66  61  84 CALM      29.95R
PALM SPRINGS   SUNNY     79  59  50 SE3       29.85R
EL CENTRO NAS  MOSUNNY   82  60  47 CALM      29.80R
IMPERIAL       SUNNY     78  62  57 CALM      29.80R
BLYTHE         PTSUNNY   82  53  36 W5        29.82R
$$

NVZ020-UTZ003-201600-
SOUTHERN NEVADA-UTAH

CITY           SKY/WX    TMP DP  RH WIND       PRES   REMARKS
LAS VEGAS      NOT AVBL
SALT LAKE CITY SUNNY     63  51  65 SE3       30.18R
$$

NMZ009-TXZ055-201600-
NEW MEXICO-WEST TEXAS

CITY           SKY/WX    TMP DP  RH WIND       PRES   REMARKS
ALBUQUERQUE    SUNNY     66  57  72 N8        30.18R
EL PASO        MOSUNNY   72  65  78 N6        30.06R
$$


........................KEY........................
SKY/WX - SKY CONDITION/WEATHER
TMP    - TEMPERATURE IN FAHRENHEIT
DP     - DEW POINT IN FAHRENHEIT
RH     - RELATIVE HUMIDITY IN PERCENT
WIND   - DIRECTION AND SPEED IN MILES PER HOUR (MPH)
VRB    - VARIABLE WIND DIRECTION
PRES   - MEAN SEA LEVEL PRESSURE IN INCHES OF MERCURY
         F - FALLING PRESSURE   R - RISING PRESSURE
         S - STEADY PRESSURE
VSB    - VISIBILITY IN MILES
HX     - HEAT INDEX IN FAHRENHEIT
WCI    - WIND CHILL INDEX IN FAHRENHEIT
TC     - TEMPERATURE IN CELSIUS WHICH IS ALSO KNOWN AS
         TEMPERATURE IN CENTIGRADE
AFB    - AIR FORCE BASE
         LUKE AFB IS LUKE AIR FORCE BASE
         DAVIS-MONTHAN IS DAVIS-MONTHAN AIR FORCE BASE
NAS    - NAVAL AIR STATION
         EL CENTRO NAS IS EL CENTRO NAVAL AIR STATION
N/A    - NOT AVAILABLE


USA.gov is the U.S. government's official web portal to all federal, state and local government web resources and services.